Weather History for KBMQ - August, 2012

Change the Weather History Date:

Friday, August 10, 2012

  Actual Average Record
Temperature  
Mean Temperature 90 °F -  
Max Temperature 105 °F 93 °F 105 °F (2012)
Min Temperature 75 °F 71 °F 70 °F (2005)
Cooling Degree Days 25    
Growing Degree Days 40 (Base 50)    
Moisture  
Dew Point 63 °F    
Average Humidity 46    
Maximum Humidity 76    
Minimum Humidity 18    
Precipitation  
Precipitation 0.00 in - - ()
Sea Level Pressure  
Sea Level Pressure 29.88 in    
Wind  
Wind Speed 5 mph (NW)    
Max Wind Speed 13 mph    
Max Gust Speed 20 mph    
Visibility 10 miles    
Events      
Averages and records for this station are not official NWS values.
T = Trace of Precipitation, MM = Missing Value Source: NWS Daily Summary

Daily Weather History Graph

Daily Weather History Graph

Search for Another Location

Airport or City:

Trip Planner

Search our weather history database for the weather conditions in past years. The results will help you decide how hot, cold, wet, or windy it might be!

Date:

Astronomy

Aug. 10, 2012 Rise Set
Actual Time 6:56 AM CDT 8:19 PM CDT
Civil Twilight 6:30 AM CDT 8:44 PM CDT
Nautical Twilight 6:00 AM CDT 9:15 PM CDT
Astronomical Twilight 5:28 AM CDT 9:47 PM CDT
Moon 12:50 AM CDT (8/10) 2:55 PM CDT (8/10)
Length of Visible Light 14h 14m
Length of Day
13h 22m
Last Quarter, 41% of the Moon is Illuminated
Aug 10
Last Quarter
Aug 17
New
Aug 24
First Quarter
Aug 31
Full
Sep 8
Last Quarter

Hourly Weather History & Observations

Time (CDT) Temp. Heat Index Dew Point Humidity Pressure Visibility Wind Dir Wind Speed Gust Speed Precip Events Conditions
12:53 AM 80.1 °F 81.9 °F 64.9 °F 60% 29.89 in 10.0 mi SW 3.5 mph - N/A   Clear
1:53 AM 79.0 °F - 66.0 °F 64% 29.88 in 10.0 mi SW 3.5 mph - N/A   Clear
2:53 AM 79.0 °F - 66.0 °F 64% 29.88 in 10.0 mi SW 3.5 mph - N/A   Clear
3:53 AM 80.1 °F 82.1 °F 66.0 °F 62% 29.89 in 10.0 mi West 4.6 mph - N/A   Clear
4:53 AM 77.0 °F - 66.0 °F 69% 29.89 in 10.0 mi Calm Calm - N/A   Clear
5:53 AM 75.9 °F - 66.9 °F 74% 29.91 in 10.0 mi Calm Calm - N/A   Clear
6:53 AM 75.9 °F - 68.0 °F 76% 29.93 in 10.0 mi Calm Calm - N/A   Clear
7:53 AM 77.0 °F - 69.1 °F 76% 29.93 in 8.0 mi SW 4.6 mph - N/A   Clear
8:53 AM 82.9 °F 85.8 °F 68.0 °F 60% 29.94 in 10.0 mi West 8.1 mph - N/A   Clear
9:53 AM 87.1 °F 90.6 °F 68.0 °F 53% 29.93 in 10.0 mi WSW 9.2 mph 18.4 mph N/A   Clear
10:53 AM 91.0 °F 94.3 °F 66.9 °F 45% 29.92 in 10.0 mi West 11.5 mph - N/A   Clear
11:53 AM 95.0 °F 97.9 °F 66.0 °F 38% 29.91 in 10.0 mi WNW 9.2 mph 17.3 mph N/A   Clear
12:53 PM 102.0 °F 103.9 °F 62.1 °F 27% 29.89 in 10.0 mi North - - N/A   Clear
1:53 PM 102.9 °F 103.6 °F 60.1 °F 24% 29.88 in 10.0 mi ENE 8.1 mph 18.4 mph N/A   Clear
2:53 PM 102.9 °F 104.2 °F 61.0 °F 25% 29.86 in 10.0 mi NE 12.7 mph 19.6 mph N/A   Clear
3:53 PM 105.1 °F 105.0 °F 57.9 °F 21% 29.85 in 10.0 mi NNE 10.4 mph 18.4 mph N/A   Clear
4:53 PM 102.9 °F 101.4 °F 54.0 °F 20% 29.82 in 10.0 mi NNW 6.9 mph 19.6 mph N/A   Clear
5:53 PM 102.9 °F - 52.0 °F 18% 29.81 in 10.0 mi North 12.7 mph - N/A   Clear
6:53 PM 100.9 °F - 51.1 °F 19% 29.83 in 10.0 mi North 8.1 mph - N/A   Clear
7:53 PM 98.1 °F - 48.9 °F 19% 29.85 in 10.0 mi ENE 5.8 mph - N/A   Clear
8:53 PM 89.1 °F 90.3 °F 64.0 °F 43% 29.87 in 10.0 mi South 3.5 mph - N/A   Clear
9:53 PM 86.0 °F 87.3 °F 64.0 °F 48% 29.87 in 10.0 mi Calm Calm - N/A   Clear
10:53 PM 82.9 °F 84.0 °F 63.0 °F 51% 29.89 in 10.0 mi NNE 4.6 mph - N/A   Clear
11:53 PM 82.0 °F 83.1 °F 63.0 °F 52% 29.88 in 10.0 mi North 4.6 mph - N/A   Clear